Location: Bishop�s Knoyle
(51.0728°N, 2.1714°W)
Time: 18:28:01
(UTC+00:00)

XW-2F - Visible Passes

Search period start: 07 December 2021 00:00
Search period end: 17 December 2021 00:00
Orbit: 497 x 514 km, 97.5° (Epoch: 07 December)

Date Brightness Start Highest point End Pass type
(mag) Time Alt. Az. Time Alt. Az. Time Alt. Az.
07 Dec ? 06:12:26 10° NNE 06:16:07 49° E 06:19:47 10° S visible
07 Dec ? 16:55:59 10° SE 16:59:34 47° ENE 17:03:11 10° N visible
07 Dec ? 18:31:08 10° SW 18:33:41 17° W 18:36:16 10° NW visible
08 Dec ? 05:54:49 10° NNE 05:58:15 32° E 06:01:37 10° SSE visible
08 Dec ? 16:38:31 10° SE 16:41:51 31° ENE 16:45:12 10° N visible
08 Dec ? 18:12:34 10° SSW 18:15:44 26° W 18:18:57 10° NW visible
09 Dec ? 05:37:22 10° NE 05:40:19 21° E 05:43:13 10° SE visible
09 Dec ? 07:10:48 10° N 07:14:19 38° WNW 07:17:49 10° SW visible
09 Dec ? 17:54:18 10° SSW 17:57:50 39° W 18:01:24 10° NNW visible
10 Dec ? 05:20:15 10° NE 05:22:20 14° E 05:24:24 10° ESE visible
10 Dec ? 06:52:51 10° N 06:56:35 59° WNW 07:00:16 10° SSW visible
10 Dec ? 17:36:16 10° S 17:39:57 62° WSW 17:43:43 10° NNW visible
11 Dec ? 06:34:59 10° NNE 06:38:46 88° E 06:42:32 10° SSW visible
11 Dec ? 17:18:23 10° SSE 17:22:07 83° ENE 17:25:55 10° NNW visible
11 Dec ? 18:55:58 10° W 18:56:33 10° W 18:57:08 10° WNW visible
12 Dec ? 06:17:12 10° NNE 06:20:56 55° E 06:24:37 10° S visible
12 Dec ? 17:00:41 10° SSE 17:04:20 53° ENE 17:08:01 10° N visible
12 Dec ? 18:36:11 10° SW 18:38:31 16° W 18:40:52 10° NW visible
13 Dec ? 05:59:32 10° NNE 06:03:02 35° E 06:06:30 10° SSE visible
13 Dec ? 16:43:09 10° SE 16:46:34 34° ENE 16:50:01 10° N visible
13 Dec ? 18:17:28 10° SSW 18:20:31 23° W 18:23:36 10° NW visible
14 Dec ? 05:42:00 10° NE 05:45:05 23° E 05:48:08 10° SSE visible
14 Dec ? 07:15:35 10° N 07:19:02 34° WNW 07:22:27 10° SW visible
14 Dec ? 17:59:06 10° SSW 18:02:34 35° W 18:06:04 10° NNW visible
15 Dec ? 05:24:44 10° NE 05:27:05 16° E 05:29:25 10° SE visible
15 Dec ? 06:57:35 10° N 07:01:16 52° WNW 07:04:54 10° SSW visible
15 Dec ? 17:40:58 10° S 17:44:39 55° W 17:48:23 10° NNW visible
16 Dec ? 05:08:27 10° ENE 05:09:02 10° E 05:09:36 10° E visible
16 Dec ? 06:39:40 10° NNE 06:43:27 83° WNW 06:47:11 10° SSW visible
16 Dec ? 17:23:01 10° SSE 17:26:46 88° WSW 17:30:35 10° NNW visible
